QPF
0.01 0.00 0.00 0.00 0.00 0.00 0.01 0.02 0.02 0.02 0.01 0.01 0.01 0.01 0.01 0.01 0.01 0.01 0.01 0.01 0.01 0.01 0.01 0.01 0.00 0.00 0.00 0.00 0.01 0.01 0.01 0.01 0.01 0.01 0.01 0.01 0.01 0.01 0.01 0.00 0.00 0.01 0.00 0.01
0.00 0.00 0.01 0.00 0.00 0.00 0.01 0.01 0.01 0.01 0.02 0.02 0.02 0.01 0.01 0.01 0.01 0.01 0.01 0.01 0.01 0.01 0.01 0.01 0.00 0.00 0.00 0.00 0.01 0.01 0.01 0.01 0.01 0.01 0.01 0.01 0.01 0.01 0.01 0.01 0.01 0.01 0.01 0.01
0.01 0.00 0.01 0.01 0.01 0.01 0.01 0.01 0.02 0.02 0.02 0.02 0.01 0.02 0.02 0.02 0.02 0.01 0.01 0.01 0.01 0.01 0.01 0.01 0.01 0.00 0.00 0.00 0.00 0.01 0.01 0.01 0.01 0.01 0.01 0.01 0.01 0.01 0.01 0.01 0.01 0.01 0.01 0.01
0.02 0.01 0.01 0.01 0.01 0.01 0.01 0.02 0.03 0.02 0.02 0.01 0.01 0.01 0.01 0.02 0.02 0.01 0.01 0.01 0.01 0.01 0.02 0.01 0.01 0.01 0.01 0.00 0.00 0.00 0.01 0.01 0.01 0.01 0.01 0.02 0.02 0.02 0.02 0.02 0.02 0.02 0.01 0.01
0.04 0.02 0.01 0.01 0.01 0.01 0.01 0.02 0.02 0.01 0.01 0.01 0.01 0.01 0.01 0.01 0.01 0.01 0.02 0.02 0.02 0.02 0.02 0.02 0.01 0.01 0.01 0.01 0.01 0.00 0.01 0.01 0.01 0.01 0.02 0.02 0.02 0.02 0.02 0.02 0.02 0.02 0.01 0.01
0.04 0.03 0.01 0.01 0.01 0.01 0.01 0.02 0.01 0.01 0.01 0.00 0.01 0.01 0.01 0.01 0.01 0.01 0.02 0.02 0.02 0.02 0.02 0.02 0.02 0.02 0.01 0.01 0.01 0.01 0.01 0.01 0.01 0.01 0.02 0.02 0.02 0.02 0.02 0.02 0.02 0.02 0.01 0.01
0.04 0.03 0.02 0.01 0.01 0.01 0.02 0.02 0.00 0.00 0.00 0.01 0.01 0.01 0.01 0.01 0.01 0.01 0.02 0.02 0.02 0.02 0.02 0.02 0.02 0.02 0.02 0.01 0.01 0.01 0.01 0.01 0.01 0.01 0.02 0.02 0.01 0.01 0.01 0.01 0.01 0.01 0.01 0.01
0.03 0.04 0.03 0.01 0.01 0.01 0.02 0.01 0.00 0.00 0.00 0.01 0.01 0.00 0.00 0.00 0.00 0.01 0.02 0.02 0.02 0.02 0.02 0.02 0.02 0.02 0.02 0.01 0.01 0.01 0.01 0.01 0.01 0.01 0.02 0.02 0.02 0.01 0.01 0.01 0.01 0.01 0.01 0.00
0.03 0.03 0.02 0.01 0.02 0.01 0.01 0.01 0.00 0.01 0.00 0.00 0.01 0.00 0.00 0.01 0.01 0.01 0.02 0.02 0.02 0.02 0.01 0.01 0.02 0.02 0.01 0.01 0.01 0.01 0.01 0.01 0.01 0.01 0.01 0.01 0.01 0.01 0.01 0.01 0.01 0.01 0.01 0.01
0.03 0.03 0.02 0.02 0.01 0.01 0.01 0.01 0.01 0.01 0.01 0.01 0.01 0.01 0.01 0.01 0.01 0.01 0.02 0.02 0.02 0.02 0.02 0.01 0.01 0.02 0.01 0.01 0.01 0.01 0.01 0.01 0.01 0.01 0.01 0.01 0.01 0.01 0.01 0.02 0.02 0.02 0.02 0.02
0.03 0.01 0.01 0.02 0.01 0.01 0.01 0.01 0.01 0.00 0.00 0.01 0.01 0.01 0.01 0.01 0.01 0.01 0.02 0.02 0.02 0.02 0.02 0.02 0.02 0.02 0.02 0.02 0.01 0.01 0.01 0.01 0.01 0.01 0.01 0.01 0.01 0.02 0.02 0.02 0.02 0.03 0.03 0.03
0.03 0.01 0.03 0.02 0.02 0.01 0.01 0.01 0.01 0.01 0.01 0.01 0.01 0.01 0.01 0.01 0.01 0.02 0.02 0.03 0.02 0.02 0.02 0.02 0.02 0.02 0.02 0.02 0.02 0.02 0.02 0.02 0.02 0.01 0.01 0.01 0.01 0.01 0.01 0.02 0.02 0.02 0.02 0.03
0.03 0.02 0.02 0.02 0.02 0.02 0.02 0.01 0.01 0.01 0.02 0.02 0.01 0.01 0.01 0.01 0.01 0.02 0.02 0.02 0.03 0.03 0.03 0.02 0.02 0.02 0.02 0.03 0.03 0.02 0.02 0.02 0.02 0.02 0.02 0.02 0.01 0.01 0.01 0.01 0.01 0.02 0.02 0.02
0.02 0.02 0.02 0.01 0.02 0.02 0.01 0.01 0.01 0.01 0.02 0.02 0.01 0.01 0.01 0.01 0.01 0.02 0.02 0.02 0.03 0.03 0.03 0.03 0.02 0.02 0.02 0.03 0.03 0.02 0.02 0.02 0.02 0.02 0.02 0.02 0.02 0.02 0.02 0.02 0.02 0.01 0.01 0.01
0.01 0.02 0.02 0.02 0.01 0.01 0.01 0.01 0.01 0.01 0.01 0.01 0.01 0.01 0.02 0.02 0.02 0.02 0.03 0.03 0.03 0.03 0.03 0.03 0.02 0.02 0.02 0.03 0.03 0.03 0.03 0.02 0.02 0.02 0.02 0.02 0.02 0.02 0.02 0.02 0.02 0.02 0.02 0.02
0.01 0.01 0.01 0.01 0.01 0.01 0.01 0.01 0.01 0.01 0.01 0.01 0.02 0.02 0.02 0.03 0.03 0.03 0.03 0.04 0.04 0.03 0.04 0.03 0.03 0.03 0.03 0.03 0.03 0.03 0.03 0.03 0.03 0.02 0.02 0.02 0.03 0.03 0.03 0.03 0.03 0.03 0.03 0.03
0.02 0.02 0.02 0.02 0.01 0.01 0.01 0.02 0.02 0.02 0.02 0.02 0.02 0.02 0.02 0.02 0.02 0.03 0.03 0.04 0.04 0.04 0.04 0.04 0.04 0.04 0.04 0.03 0.03 0.04 0.04 0.03 0.03 0.03 0.03 0.03 0.03 0.04 0.03 0.03 0.03 0.03 0.03 0.03
0.02 0.02 0.03 0.03 0.03 0.02 0.02 0.02 0.02 0.03 0.03 0.02 0.02 0.02 0.02 0.02 0.03 0.03 0.03 0.03 0.03 0.03 0.03 0.04 0.04 0.04 0.04 0.04 0.04 0.04 0.04 0.04 0.04 0.04 0.04 0.04 0.04 0.04 0.03 0.03 0.03 0.03 0.03 0.03
0.02 0.02 0.02 0.03 0.03 0.03 0.03 0.02 0.02 0.03 0.03 0.03 0.03 0.03 0.03 0.03 0.03 0.03 0.04 0.04 0.03 0.03 0.03 0.04 0.04 0.03 0.04 0.04 0.04 0.04 0.04 0.04 0.04 0.04 0.04 0.04 0.04 0.04 0.03 0.03 0.02 0.02 0.02 0.02
0.02 0.02 0.02 0.03 0.02 0.03 0.03 0.03 0.03 0.03 0.03 0.03 0.03 0.03 0.03 0.03 0.04 0.04 0.04 0.04 0.04 0.04 0.04 0.04 0.03 0.03 0.03 0.03 0.04 0.04 0.04 0.04 0.04 0.04 0.04 0.04 0.03 0.03 0.03 0.02 0.02 0.02 0.02 0.02
0.02 0.02 0.02 0.02 0.03 0.03 0.03 0.03 0.04 0.04 0.04 0.04 0.04 0.04 0.04 0.04 0.04 0.04 0.03 0.03 0.04 0.04 0.03 0.03 0.03 0.03 0.03 0.03 0.03 0.04 0.04 0.04 0.04 0.04 0.03 0.03 0.03 0.02 0.02 0.02 0.02 0.02 0.02 0.02
0.02 0.02 0.03 0.03 0.03 0.03 0.03 0.04 0.04 0.04 0.04 0.04 0.04 0.04 0.04 0.04 0.04 0.04 0.04 0.04 0.04 0.03 0.03 0.03 0.03 0.03 0.03 0.02 0.02 0.03 0.03 0.03 0.03 0.03 0.03 0.02 0.02 0.02 0.02 0.02 0.01 0.01 0.01 0.01
0.02 0.02 0.03 0.03 0.03 0.03 0.03 0.03 0.03 0.04 0.04 0.04 0.04 0.04 0.04 0.04 0.04 0.04 0.04 0.04 0.04 0.03 0.03 0.03 0.03 0.03 0.03 0.02 0.02 0.02 0.03 0.03 0.03 0.03 0.02 0.02 0.02 0.01 0.01 0.01 0.01 0.01 0.01 0.01
0.01 0.02 0.02 0.03 0.02 0.02 0.02 0.03 0.03 0.03 0.04 0.04 0.04 0.04 0.04 0.04 0.04 0.04 0.05 0.05 0.05 0.04 0.04 0.04 0.03 0.03 0.03 0.02 0.02 0.02 0.02 0.03 0.03 0.02 0.02 0.02 0.01 0.01 0.01 0.01 0.01 0.01 0.01 0.01
0.01 0.02 0.02 0.02 0.02 0.02 0.02 0.02 0.02 0.02 0.02 0.03 0.03 0.04 0.04 0.04 0.04 0.05 0.05 0.05 0.05 0.04 0.04 0.04 0.03 0.03 0.02 0.02 0.02 0.02 0.02 0.02 0.02 0.02 0.02 0.02 0.01 0.01 0.01 0.01 0.02 0.01 0.01 0.01
0.02 0.02 0.02 0.02 0.02 0.02 0.02 0.02 0.02 0.02 0.02 0.02 0.02 0.03 0.03 0.03 0.04 0.04 0.04 0.04 0.04 0.03 0.03 0.03 0.02 0.02 0.02 0.02 0.02 0.02 0.02 0.02 0.02 0.02 0.02 0.02 0.02 0.02 0.02 0.02 0.02 0.02 0.01 0.01
0.01 0.02 0.02 0.02 0.02 0.02 0.02 0.02 0.02 0.02 0.02 0.02 0.02 0.02 0.02 0.03 0.02 0.02 0.02 0.02 0.02 0.02 0.02 0.02 0.02 0.02 0.02 0.02 0.02 0.02 0.02 0.02 0.02 0.02 0.02 0.02 0.02 0.02 0.02 0.02 0.02 0.02 0.01 0.01
MSLP
1018.64 1018.43 1018.31 1018.27 1018.29 1018.36 1018.48 1018.64 1018.84 1019.08 1019.38 1019.73 1020.13 1020.57 1021.02 1021.44 1021.77 1021.97 1022.01 1021.84 1021.47 1020.91 1020.18 1019.34 1018.43 1017.50 1016.60 1015.77 1015.03 1014.37 1013.80 1013.31 1012.89 1012.55 1012.26 1012.04 1011.87 1011.75 1011.64 1011.54 1011.39 1011.18 1010.86 1010.42
1019.90 1019.68 1019.53 1019.45 1019.44 1019.49 1019.59 1019.74 1019.93 1020.16 1020.45 1020.78 1021.14 1021.52 1021.89 1022.21 1022.44 1022.54 1022.48 1022.24 1021.82 1021.24 1020.53 1019.72 1018.86 1017.97 1017.11 1016.28 1015.50 1014.79 1014.12 1013.52 1012.97 1012.49 1012.08 1011.74 1011.49 1011.30 1011.18 1011.08 1010.98 1010.84 1010.62 1010.29
1021.34 1021.10 1020.92 1020.81 1020.76 1020.77 1020.83 1020.94 1021.08 1021.27 1021.50 1021.76 1022.04 1022.31 1022.56 1022.75 1022.85 1022.84 1022.69 1022.40 1021.96 1021.40 1020.74 1020.00 1019.21 1018.40 1017.58 1016.78 1015.99 1015.22 1014.47 1013.75 1013.08 1012.46 1011.92 1011.47 1011.12 1010.87 1010.70 1010.61 1010.54 1010.46 1010.33 1010.12
1022.78 1022.49 1022.26 1022.10 1022.00 1021.96 1021.98 1022.04 1022.13 1022.26 1022.42 1022.59 1022.76 1022.92 1023.03 1023.09 1023.07 1022.96 1022.74 1022.41 1021.98 1021.46 1020.86 1020.20 1019.50 1018.77 1018.02 1017.24 1016.44 1015.62 1014.80 1013.98 1013.19 1012.44 1011.77 1011.21 1010.77 1010.45 1010.24 1010.13 1010.08 1010.04 1009.98 1009.86
1024.00 1023.65 1023.37 1023.14 1022.99 1022.90 1022.86 1022.88 1022.93 1023.02 1023.12 1023.21 1023.30 1023.36 1023.37 1023.32 1023.20 1023.01 1022.74 1022.39 1021.97 1021.49 1020.96 1020.38 1019.76 1019.10 1018.40 1017.64 1016.84 1015.99 1015.10 1014.19 1013.29 1012.44 1011.66 1010.99 1010.45 1010.06 1009.80 1009.65 1009.58 1009.56 1009.54 1009.49
1024.91 1024.48 1024.12 1023.82 1023.61 1023.47 1023.41 1023.40 1023.44 1023.50 1023.57 1023.64 1023.68 1023.68 1023.62 1023.50 1023.32 1023.07 1022.76 1022.40 1021.99 1021.55 1021.07 1020.55 1019.99 1019.38 1018.72 1017.98 1017.17 1016.29 1015.35 1014.37 1013.39 1012.45 1011.58 1010.82 1010.19 1009.72 1009.38 1009.17 1009.07 1009.03 1009.01 1008.98
1025.45 1024.94 1024.50 1024.15 1023.88 1023.72 1023.63 1023.63 1023.67 1023.75 1023.84 1023.91 1023.95 1023.93 1023.84 1023.70 1023.48 1023.20 1022.87 1022.49 1022.09 1021.66 1021.20 1020.72 1020.20 1019.62 1018.97 1018.25 1017.43 1016.53 1015.56 1014.54 1013.51 1012.50 1011.55 1010.71 1010.00 1009.43 1009.01 1008.72 1008.55 1008.44 1008.39 1008.35
1025.68 1025.12 1024.62 1024.22 1023.92 1023.74 1023.66 1023.67 1023.75 1023.87 1024.00 1024.11 1024.17 1024.17 1024.09 1023.94 1023.71 1023.41 1023.06 1022.67 1022.25 1021.82 1021.36 1020.89 1020.37 1019.80 1019.17 1018.44 1017.63 1016.72 1015.74 1014.70 1013.63 1012.58 1011.59 1010.68 1009.88 1009.23 1008.70 1008.31 1008.03 1007.84 1007.72 1007.63
1025.74 1025.14 1024.62 1024.20 1023.89 1023.72 1023.66 1023.70 1023.83 1023.99 1024.17 1024.33 1024.43 1024.46 1024.40 1024.25 1024.01 1023.70 1023.33 1022.92 1022.48 1022.02 1021.54 1021.04 1020.52 1019.94 1019.30 1018.58 1017.77 1016.87 1015.89 1014.86 1013.78 1012.71 1011.68 1010.72 1009.85 1009.09 1008.46 1007.95 1007.55 1007.25 1007.03 1006.87
1025.78 1025.19 1024.68 1024.26 1023.98 1023.82 1023.79 1023.87 1024.03 1024.24 1024.45 1024.64 1024.78 1024.83 1024.78 1024.63 1024.38 1024.05 1023.65 1023.20 1022.72 1022.22 1021.71 1021.18 1020.62 1020.02 1019.38 1018.66 1017.86 1016.98 1016.02 1015.00 1013.95 1012.87 1011.82 1010.81 1009.87 1009.03 1008.28 1007.65 1007.13 1006.70 1006.38 1006.14
1025.92 1025.39 1024.92 1024.55 1024.31 1024.18 1024.18 1024.28 1024.45 1024.67 1024.90 1025.10 1025.23 1025.28 1025.22 1025.05 1024.78 1024.42 1023.98 1023.49 1022.96 1022.41 1021.84 1021.27 1020.67 1020.05 1019.39 1018.68 1017.89 1017.04 1016.12 1015.13 1014.09 1013.03 1011.97 1010.93 1009.94 1009.01 1008.17 1007.43 1006.78 1006.25 1005.82 1005.50
1026.23 1025.79 1025.41 1025.12 1024.92 1024.83 1024.85 1024.95 1025.11 1025.31 1025.51 1025.67 1025.77 1025.78 1025.68 1025.48 1025.17 1024.76 1024.28 1023.73 1023.15 1022.54 1021.92 1021.30 1020.66 1020.01 1019.34 1018.63 1017.86 1017.04 1016.15 1015.20 1014.20 1013.16 1012.10 1011.05 1010.02 1009.03 1008.12 1007.28 1006.54 1005.91 1005.40 1005.01
1026.69 1026.37 1026.10 1025.89 1025.76 1025.70 1025.72 1025.80 1025.93 1026.07 1026.20 1026.30 1026.32 1026.27 1026.11 1025.84 1025.48 1025.02 1024.48 1023.89 1023.25 1022.59 1021.92 1021.25 1020.58 1019.90 1019.21 1018.50 1017.75 1016.95 1016.10 1015.19 1014.23 1013.22 1012.19 1011.13 1010.09 1009.07 1008.11 1007.22 1006.41 1005.72 1005.15 1004.72
1027.22 1027.03 1026.88 1026.76 1026.68 1026.66 1026.68 1026.72 1026.79 1026.85 1026.89 1026.89 1026.83 1026.68 1026.44 1026.11 1025.68 1025.17 1024.58 1023.94 1023.25 1022.55 1021.83 1021.12 1020.41 1019.70 1019.00 1018.28 1017.54 1016.77 1015.95 1015.09 1014.17 1013.21 1012.21 1011.18 1010.15 1009.14 1008.16 1007.25 1006.42 1005.69 1005.10 1004.64
1027.69 1027.63 1027.59 1027.56 1027.54 1027.54 1027.55 1027.56 1027.55 1027.53 1027.47 1027.37 1027.20 1026.96 1026.64 1026.24 1025.76 1025.19 1024.56 1023.88 1023.15 1022.40 1021.65 1020.90 1020.16 1019.43 1018.70 1017.98 1017.25 1016.50 1015.72 1014.90 1014.03 1013.12 1012.17 1011.19 1010.20 1009.22 1008.27 1007.37 1006.55 1005.83 1005.23 1004.77
1028.01 1028.06 1028.11 1028.16 1028.20 1028.22 1028.22 1028.18 1028.12 1028.02 1027.87 1027.68 1027.42 1027.09 1026.70 1026.24 1025.70 1025.10 1024.43 1023.72 1022.96 1022.19 1021.40 1020.62 1019.85 1019.09 1018.35 1017.62 1016.90 1016.17 1015.42 1014.64 1013.83 1012.98 1012.09 1011.18 1010.25 1009.33 1008.43 1007.58 1006.80 1006.11 1005.53 1005.08
1028.10 1028.23 1028.36 1028.47 1028.56 1028.60 1028.60 1028.55 1028.44 1028.28 1028.06 1027.80 1027.47 1027.08 1026.64 1026.13 1025.56 1024.92 1024.24 1023.50 1022.72 1021.92 1021.11 1020.31 1019.51 1018.73 1017.98 1017.24 1016.52 1015.80 1015.08 1014.35 1013.59 1012.80 1011.99 1011.15 1010.30 1009.45 1008.62 1007.84 1007.11 1006.47 1005.92 1005.49
1027.94 1028.13 1028.32 1028.49 1028.61 1028.69 1028.70 1028.64 1028.52 1028.33 1028.08 1027.77 1027.40 1026.98 1026.50 1025.96 1025.37 1024.72 1024.02 1023.27 1022.48 1021.66 1020.84 1020.01 1019.19 1018.40 1017.63 1016.88 1016.16 1015.46 1014.76 1014.06 1013.35 1012.62 1011.87 1011.10 1010.33 1009.56 1008.80 1008.09 1007.43 1006.84 1006.33 1005.93
1027.59 1027.81 1028.04 1028.25 1028.42 1028.53 1028.56 1028.53 1028.41 1028.22 1027.97 1027.65 1027.28 1026.84 1026.35 1025.81 1025.21 1024.56 1023.85 1023.09 1022.29 1021.46 1020.62 1019.78 1018.94 1018.13 1017.35 1016.60 1015.87 1015.17 1014.49 1013.81 1013.13 1012.44 1011.74 1011.03 1010.31 1009.60 1008.91 1008.25 1007.65 1007.11 1006.64 1006.26
1027.13 1027.37 1027.63 1027.87 1028.08 1028.23 1028.31 1028.30 1028.22 1028.06 1027.83 1027.53 1027.17 1026.74 1026.26 1025.72 1025.13 1024.47 1023.76 1023.00 1022.20 1021.36 1020.51 1019.66 1018.81 1017.98 1017.19 1016.42 1015.69 1014.98 1014.29 1013.62 1012.94 1012.26 1011.58 1010.89 1010.20 1009.52 1008.87 1008.25 1007.68 1007.18 1006.75 1006.39
1026.67 1026.92 1027.19 1027.46 1027.71 1027.90 1028.02 1028.07 1028.03 1027.92 1027.72 1027.46 1027.12 1026.72 1026.26 1025.73 1025.14 1024.49 1023.79 1023.03 1022.22 1021.38 1020.53 1019.66 1018.81 1017.97 1017.16 1016.37 1015.62 1014.89 1014.18 1013.48 1012.78 1012.08 1011.37 1010.67 1009.97 1009.28 1008.63 1008.01 1007.46 1006.97 1006.56 1006.23
1026.28 1026.53 1026.82 1027.11 1027.38 1027.61 1027.78 1027.88 1027.90 1027.83 1027.68 1027.46 1027.16 1026.79 1026.35 1025.84 1025.26 1024.62 1023.91 1023.16 1022.36 1021.52 1020.66 1019.80 1018.94 1018.09 1017.26 1016.45 1015.67 1014.90 1014.14 1013.39 1012.63 1011.87 1011.11 1010.34 1009.59 1008.86 1008.16 1007.52 1006.95 1006.46 1006.06 1005.76
1026.02 1026.27 1026.56 1026.87 1027.16 1027.43 1027.63 1027.77 1027.83 1027.81 1027.71 1027.52 1027.26 1026.91 1026.49 1026.00 1025.43 1024.80 1024.11 1023.36 1022.57 1021.74 1020.89 1020.04 1019.17 1018.32 1017.47 1016.64 1015.82 1015.00 1014.18 1013.35 1012.51 1011.65 1010.80 1009.94 1009.09 1008.28 1007.52 1006.82 1006.21 1005.69 1005.29 1004.99
1025.91 1026.15 1026.44 1026.75 1027.06 1027.34 1027.57 1027.73 1027.83 1027.84 1027.76 1027.61 1027.36 1027.04 1026.64 1026.16 1025.61 1024.99 1024.31 1023.58 1022.81 1022.01 1021.18 1020.33 1019.48 1018.63 1017.77 1016.92 1016.05 1015.17 1014.28 1013.36 1012.42 1011.46 1010.48 1009.51 1008.55 1007.63 1006.77 1005.99 1005.32 1004.76 1004.34 1004.04
1025.95 1026.17 1026.45 1026.75 1027.05 1027.33 1027.56 1027.73 1027.84 1027.86 1027.80 1027.66 1027.43 1027.12 1026.73 1026.26 1025.73 1025.13 1024.48 1023.78 1023.04 1022.27 1021.47 1020.65 1019.82 1018.98 1018.12 1017.25 1016.34 1015.41 1014.45 1013.44 1012.40 1011.32 1010.23 1009.13 1008.05 1007.01 1006.05 1005.18 1004.43 1003.82 1003.36 1003.05
1026.11 1026.32 1026.57 1026.84 1027.11 1027.37 1027.58 1027.74 1027.83 1027.84 1027.78 1027.63 1027.41 1027.10 1026.72 1026.28 1025.76 1025.20 1024.58 1023.92 1023.22 1022.49 1021.74 1020.96 1020.16 1019.34 1018.49 1017.61 1016.69 1015.72 1014.69 1013.61 1012.48 1011.31 1010.10 1008.89 1007.70 1006.56 1005.50 1004.54 1003.72 1003.04 1002.54 1002.19
1026.38 1026.55 1026.76 1026.99 1027.22 1027.43 1027.60 1027.72 1027.78 1027.76 1027.68 1027.52 1027.29 1026.98 1026.61 1026.19 1025.70 1025.17 1024.59 1023.98 1023.33 1022.66 1021.96 1021.24 1020.48 1019.70 1018.87 1018.00 1017.07 1016.08 1015.01 1013.88 1012.69 1011.45 1010.17 1008.88 1007.61 1006.39 1005.24 1004.21 1003.32 1002.58 1002.01 1001.63
Thickness
5411 5415 5413 5415 5419 5417 5413 5414 5414 5425 5429 5436 5435 5435 5436 5437 5438 5441 5444 5447 5449 5451 5453 5455 5458 5461 5464 5467 5468 5470 5471 5471 5473 5473 5474 5474 5475 5475 5475 5475 5476 5476 5476 5475
5396 5406 5403 5406 5410 5409 5411 5410 5409 5414 5418 5422 5421 5422 5423 5424 5425 5428 5431 5435 5437 5440 5442 5444 5448 5451 5454 5457 5459 5460 5461 5463 5464 5464 5464 5465 5466 5466 5466 5467 5467 5467 5467 5467
5381 5387 5389 5393 5398 5400 5398 5397 5398 5400 5406 5408 5408 5411 5412 5413 5414 5416 5420 5423 5425 5428 5431 5434 5437 5440 5443 5447 5449 5451 5452 5453 5454 5454 5455 5455 5456 5457 5457 5457 5457 5458 5458 5458
5364 5369 5368 5391 5394 5395 5392 5390 5388 5390 5392 5394 5397 5399 5401 5401 5402 5404 5408 5411 5414 5417 5420 5423 5426 5429 5433 5435 5438 5440 5441 5443 5444 5445 5445 5446 5446 5447 5448 5448 5448 5449 5449 5449
5352 5352 5368 5377 5381 5378 5377 5379 5379 5378 5381 5383 5385 5388 5392 5394 5393 5394 5397 5400 5403 5406 5409 5413 5416 5418 5421 5424 5427 5429 5431 5433 5434 5435 5436 5437 5437 5438 5438 5438 5439 5439 5440 5440
5343 5345 5358 5369 5371 5371 5369 5365 5369 5367 5368 5368 5370 5370 5382 5383 5382 5383 5386 5388 5391 5395 5398 5402 5405 5407 5410 5413 5416 5419 5421 5422 5424 5425 5426 5428 5429 5429 5429 5430 5430 5430 5430 5430
5335 5336 5347 5355 5357 5359 5351 5355 5356 5353 5353 5354 5354 5358 5364 5367 5369 5372 5374 5377 5380 5383 5387 5390 5393 5395 5398 5401 5405 5408 5410 5412 5414 5415 5417 5418 5419 5420 5420 5421 5421 5420 5421 5421
5324 5326 5337 5345 5342 5338 5339 5341 5341 5341 5341 5342 5343 5347 5350 5354 5357 5360 5363 5366 5369 5372 5375 5379 5381 5383 5386 5389 5393 5396 5398 5401 5404 5405 5407 5408 5409 5410 5410 5411 5411 5411 5411 5411
5321 5330 5334 5332 5330 5329 5327 5326 5328 5328 5331 5331 5333 5336 5339 5343 5346 5349 5351 5354 5357 5360 5364 5367 5369 5371 5374 5378 5381 5384 5387 5390 5393 5395 5397 5398 5399 5400 5401 5401 5402 5402 5402 5402
5311 5320 5321 5320 5319 5317 5316 5315 5317 5318 5319 5320 5322 5325 5328 5331 5335 5337 5341 5343 5346 5349 5352 5356 5358 5360 5363 5367 5370 5373 5376 5380 5382 5384 5386 5388 5390 5391 5392 5393 5393 5394 5394 5394
5302 5307 5307 5311 5309 5307 5307 5307 5307 5309 5310 5311 5312 5315 5316 5320 5323 5327 5331 5333 5335 5338 5341 5345 5348 5351 5354 5357 5360 5363 5367 5370 5372 5374 5376 5378 5380 5381 5382 5385 5387 5387 5387 5387
5297 5298 5294 5297 5299 5297 5297 5297 5298 5299 5301 5303 5303 5304 5307 5310 5313 5316 5319 5323 5325 5328 5331 5335 5338 5341 5344 5347 5350 5353 5357 5359 5362 5365 5367 5369 5370 5371 5373 5375 5378 5379 5379 5379
5286 5287 5285 5287 5288 5287 5287 5288 5289 5289 5290 5292 5294 5295 5297 5300 5303 5307 5309 5313 5315 5318 5322 5325 5329 5332 5335 5337 5340 5344 5347 5349 5352 5355 5358 5360 5362 5363 5364 5365 5367 5368 5369 5369
5276 5275 5276 5278 5277 5278 5278 5279 5279 5281 5281 5283 5284 5286 5288 5291 5294 5297 5300 5303 5306 5309 5313 5316 5320 5323 5325 5327 5330 5334 5337 5340 5343 5346 5348 5351 5353 5354 5355 5356 5356 5357 5358 5359
5267 5265 5266 5267 5268 5269 5269 5270 5271 5273 5274 5275 5276 5277 5279 5282 5285 5288 5291 5294 5298 5301 5304 5307 5311 5314 5316 5318 5321 5324 5327 5330 5333 5336 5338 5341 5344 5345 5346 5346 5347 5347 5347 5348
5257 5258 5259 5259 5259 5260 5261 5262 5262 5264 5265 5266 5267 5268 5270 5273 5276 5279 5282 5285 5288 5292 5295 5298 5302 5305 5307 5310 5313 5315 5318 5322 5324 5327 5329 5331 5333 5335 5336 5336 5336 5336 5336 5337
5247 5250 5250 5251 5251 5252 5252 5253 5254 5255 5256 5257 5258 5260 5262 5264 5267 5269 5272 5275 5278 5282 5286 5290 5294 5296 5299 5302 5304 5306 5309 5312 5315 5318 5320 5322 5323 5325 5326 5326 5326 5325 5325 5326
5240 5241 5241 5241 5242 5243 5245 5245 5246 5247 5248 5249 5250 5252 5254 5256 5258 5261 5263 5266 5270 5274 5278 5281 5285 5289 5291 5294 5296 5298 5300 5302 5305 5308 5310 5311 5313 5314 5315 5316 5316 5315 5315 5315
5235 5235 5235 5235 5235 5235 5236 5237 5239 5240 5241 5242 5242 5243 5245 5247 5249 5252 5255 5258 5262 5265 5269 5273 5277 5280 5283 5285 5287 5289 5291 5293 5295 5298 5300 5302 5302 5303 5304 5305 5305 5305 5305 5304
5228 5229 5228 5229 5229 5228 5229 5231 5232 5233 5234 5234 5235 5236 5238 5239 5241 5244 5247 5249 5252 5256 5261 5265 5269 5272 5275 5277 5279 5280 5282 5284 5286 5288 5290 5291 5292 5293 5294 5294 5295 5294 5294 5294
5221 5221 5222 5222 5222 5222 5223 5224 5224 5225 5226 5227 5228 5229 5230 5232 5233 5235 5239 5242 5246 5249 5254 5258 5261 5264 5266 5268 5270 5271 5272 5274 5276 5278 5280 5281 5282 5283 5284 5284 5284 5285 5285 5284
5213 5214 5215 5215 5215 5216 5216 5217 5217 5218 5219 5220 5221 5222 5223 5225 5227 5229 5231 5234 5238 5243 5246 5249 5253 5256 5258 5260 5261 5262 5263 5264 5266 5268 5269 5271 5272 5273 5274 5275 5275 5275 5275 5275
5207 5208 5208 5208 5208 5208 5209 5210 5210 5211 5212 5212 5214 5215 5216 5217 5219 5222 5225 5228 5231 5236 5238 5241 5245 5248 5251 5251 5251 5252 5254 5255 5256 5258 5260 5261 5263 5264 5265 5266 5266 5267 5266 5266
5201 5201 5201 5201 5201 5201 5202 5203 5204 5204 5205 5205 5206 5208 5209 5211 5213 5214 5217 5221 5225 5228 5230 5233 5237 5240 5241 5241 5241 5243 5244 5246 5248 5249 5251 5253 5254 5255 5256 5257 5258 5258 5258 5258
5194 5194 5194 5194 5194 5195 5195 5196 5197 5198 5199 5200 5200 5201 5202 5204 5205 5207 5210 5213 5217 5220 5221 5224 5227 5229 5230 5230 5232 5233 5235 5237 5239 5241 5242 5244 5245 5247 5248 5249 5250 5250 5251 5251
5188 5188 5188 5187 5187 5187 5188 5189 5190 5190 5192 5193 5194 5195 5196 5198 5199 5201 5203 5206 5209 5212 5213 5214 5216 5218 5219 5221 5222 5224 5226 5228 5230 5232 5234 5235 5237 5238 5240 5241 5242 5242 5243 5244
5182 5182 5181 5181 5181 5181 5181 5181 5182 5183 5185 5186 5187 5188 5189 5191 5192 5194 5197 5199 5200 5202 5204 5205 5207 5209 5210 5212 5214 5216 5217 5219 5221 5223 5225 5226 5228 5230 5231 5232 5234 5235 5236 5237